EGLC

London City Airport

Airport
ICAO code
EGLC
IATA Code
LCY
Summary
ICAO Region
EUR
ICAO Territory
Location

Silvertown, England

Serving
London
Elevation
19 ft
Coordinates
51° 30' 18" N , 0° 3' 17" E
KCC
Metar
Observation
EGLC 271320Z AUTO 06008KT 9999 BKN028 OVC035 07/01 Q1030
Station
London City Airport
Date/Time
2023-01-27 13:20:00
Wind direction
60°
Wind speed
08 kts
Lowest cloud amount
broken clouds
Temperature
7°C
Dew point
1°C
Humidity
65%
QNH
1030 hPa
Weather condition
n/a

Description

Airport serving the City of London and the business district of Canary Wharf in London's Docklands.

Climatology

Temperate Marine climate/Oceanic climate (Köppen climate classification Cfb). Moderately cool summer and comparatively warm winter with a temperature range of only 14°C. Prevailing south-westerly winds from the Atlantic Ocean.

Runways

Designator Length Width Surface Rops
10/28 1508 30 CON Yes/Yes

SKYbrary Partners:

Safety knowledge contributed by: